[Iaude] MPEC T10: 2016 TC [a=1.32,e=0.40,i=1.6,H=26.0]

mpec at si.edu mpec at si.edu
Sun Oct 2 10:11:50 EDT 2016


M.P.E.C. 2016-T10                                Issued 2016 Oct. 2, 14:07 UT
 
     The Minor Planet Electronic Circulars contain information on unusual
         minor planets and routine data on comets.  They are published
    on behalf of Division F of the International Astronomical Union by the
          Minor Planet Center, Smithsonian Astrophysical Observatory,
                          Cambridge, MA 02138, U.S.A.

             Prepared using the Tamkin Foundation Computer Network

                              MPC at CFA.HARVARD.EDU
            URL http://www.minorplanetcenter.net/    ISSN 1523-6714


                                    2016 TC
 
Observations:
     K16T00C* C2016 10 01.32811 22 37 43.08 +07 44 47.7          21.0 VqET010G96
     K16T00C  C2016 10 01.33240 22 37 39.84 +07 44 48.2          20.5 VqET010G96
     K16T00C  C2016 10 01.33668 22 37 36.54 +07 44 47.2          21.3 VqET010G96
     K16T00C  C2016 10 01.34097 22 37 33.27 +07 44 47.7          20.3 VqET010G96
     K16T00C KC2016 10 02.00738 22 29 04.46 +07 44 18.4                qET010J95
     K16T00C KC2016 10 02.01459 22 28 58.19 +07 44 18.2                qET010J95
     K16T00C KC2016 10 02.02394 22 28 50.02 +07 44 17.6          20.6 RqET010J95
     K16T00C  C2016 10 02.15265 22 27 11.07 +07 45 15.7          20.8 VqET010G96
     K16T00C  C2016 10 02.15648 22 27 07.54 +07 45 15.6          20.4 VqET010G96
     K16T00C  C2016 10 02.16031 22 27 03.95 +07 45 16.2          20.3 VqET010G96
     K16T00C  C2016 10 02.16412 22 27 00.38 +07 45 16.5          20.4 VqET010G96
     K16T00C  C2016 10 02.20262 22 26 24.27 +07 45 19.6          20.1 RoET010926
     K16T00C  C2016 10 02.20588 22 26 21.27 +07 45 20.2          19.9 RoET010926
     K16T00C  C2016 10 02.20914 22 26 18.13 +07 45 20.1          19.9 RoET010926
     K16T00C  C2016 10 02.31520 22 24 36.95 +07 45 08.4          20.7 VqET010I52
     K16T00C  C2016 10 02.31632 22 24 35.87 +07 45 08.6                qET010I52
     K16T00C  C2016 10 02.31854 22 24 33.69 +07 45 08.5          20.3 VqET010I52
 
Observer details:
926 Tenagra II Observatory.  Observers M. Schwartz, P. R. Holvorcem.  Measurer
    M. Schwartz.  0.81-m f/7 Ritchey-Chretien + CCD.
G96 Mt. Lemmon Survey.  Observers D. C. Fuls, A. D. Grauer.  Measurers
    E. J. Christensen, D. C. Fuls, A. R. Gibbs, A. D. Grauer, J. A. Johnson,
    R. A. Kowalski, S. M. Larson, G. J. Leonard, R. G. Matheny, R. L. Seaman,
    F. C. Shelly.  1.5-m reflector + 10K CCD.
I52 Steward Observatory, Mt. Lemmon Station.  Observer G. J. Leonard.
    Measurers E. J. Christensen, D. C. Fuls, A. R. Gibbs, A. D. Grauer,
    J. A. Johnson, R. A. Kowalski, S. M. Larson, G. J. Leonard, R. G. Matheny,
    R. L. Seaman, F. C. Shelly.  1.0-m reflector + CCD.
J95 Great Shefford.  Observer P. Birtwhistle.  0.40-m f/6.0 Schmidt-Cassegrain
    + CCD.
 
Orbital elements:
2016 TC                                                  Earth MOID = 0.0087 AU
Epoch 2016 July 31.0 TT = JDT 2457600.5                 MPC
M 280.75156              (2000.0)            P               Q
n   0.64905010     Peri.  237.12595     +0.02250831     -0.99963393
a   1.3211453      Node   211.59466     +0.92655685     +0.02649793
e   0.4040503      Incl.    1.64203     +0.37548073     -0.00546438
P   1.52           H   26.0           G   0.15           U   6
Residuals in seconds of arc
161001 G96  0.1+  0.0     161002 J95  0.4+  0.0     161002 926  1.0+  0.6+
161001 G96  0.5+  0.6+    161002 G96  0.3-  0.3+    161002 926  0.3+  0.6+
161001 G96  0.2-  0.3-    161002 G96  0.1+  0.1+    161002 I52  0.5+  0.3-
161001 G96  0.3-  0.4+    161002 G96  0.3-  0.5+    161002 I52  0.3+  0.1+
161002 J95  0.2-  0.3-    161002 G96  0.6-  0.7+    161002 I52  0.5-  0.3+
161002 J95  0.3+  0.0     161002 926  0.2-  0.0

Ephemeris:
2016 TC                  a,e,i = 1.32, 0.40, 2                   q = 0.7873
Date    TT    R. A. (2000) Decl.     Delta      r     Elong.  Phase     V
2016 09 02    23 53 08.7 +06 06 10   0.2399  1.2347   158.0    17.8    24.3
...
2016 09 17    23 41 01.6 +07 06 29   0.1336  1.1370   170.6     8.3    22.5
...
2016 09 25    23 20 58.3 +07 30 34   0.08342 1.0842   166.6    12.4    21.5
...
2016 10 01    22 41 33.9 +07 45 43   0.04867 1.0447   152.8    26.0    20.7
2016 10 02    22 29 16.1 +07 46 41   0.04323 1.0382   148.9    29.8    20.6
2016 10 03    22 13 36.0 +07 45 52   0.03797 1.0316   144.2    34.5    20.4
...
2016 10 09    17 41 59.0 +02 28 23   0.01866 0.9930    71.3   107.7    21.4
...
2016 10 17    13 31 51.9 -05 25 47   0.05310 0.9436     3.9   175.9
...
2016 11 01    12 44 41.4 -06 55 47   0.1473  0.8623    25.9   149.9    29.9

A. U. Tomatic                (C) Copyright 2016 MPC           M.P.E.C. 2016-T10




More information about the Iaude mailing list